Time,TemperatureF,DewpointF,PressureIn,WindDirection,WindDirectionDegrees,WindSpeedMPH,WindSpeedGustMPH,Humidity,HourlyPrecipIn,Conditions,Clouds,dailyrainin,SoftwareType,DateUTC
2013-02-19 00:01:00,42.0,36.0,29.70,SW,236,4.0,7.0,78,0.00,,,0.01,,2013-02-19 08:01:00,
2013-02-19 00:11:00,42.0,36.0,29.70,SW,236,4.0,7.0,78,0.00,,,0.01,,2013-02-19 08:11:00,
2013-02-19 00:21:00,42.0,36.0,29.70,WSW,239,3.0,7.0,78,0.00,,,0.01,,2013-02-19 08:21:00,
2013-02-19 00:31:00,41.0,36.0,29.70,WSW,248,1.0,5.0,82,0.00,,,0.01,,2013-02-19 08:31:00,
2013-02-19 00:41:00,41.0,36.0,29.70,WSW,248,1.0,5.0,82,0.00,,,0.01,,2013-02-19 08:41:00,
2013-02-19 00:52:00,41.0,36.0,29.70,North,0,0.0,3.0,82,0.00,,,0.01,,2013-02-19 08:52:00,
2013-02-19 01:01:00,41.0,37.0,29.70,North,0,0.0,2.0,84,0.00,,,0.01,,2013-02-19 09:01:00,
2013-02-19 01:11:00,41.0,37.0,29.70,North,0,0.0,2.0,84,0.00,,,0.01,,2013-02-19 09:11:00,
2013-02-19 01:21:00,41.0,37.0,29.69,North,0,0.0,0.0,86,0.00,,,0.01,,2013-02-19 09:21:00,
2013-02-19 01:31:00,40.0,36.0,29.69,North,0,0.0,1.0,84,0.00,,,0.01,,2013-02-19 09:31:00,
2013-02-19 01:41:00,40.0,36.0,29.69,North,0,0.0,1.0,84,0.00,,,0.01,,2013-02-19 09:41:00,
2013-02-19 01:52:00,40.0,36.0,29.69,North,0,0.0,0.0,85,0.00,,,0.01,,2013-02-19 09:52:00,
2013-02-19 02:01:00,40.0,36.0,29.68,North,0,0.0,1.0,86,0.00,,,0.01,,2013-02-19 10:01:00,
2013-02-19 02:11:00,40.0,36.0,29.68,North,0,0.0,1.0,86,0.00,,,0.01,,2013-02-19 10:11:00,
2013-02-19 02:21:00,39.0,36.0,29.68,North,0,0.0,0.0,88,0.00,,,0.01,,2013-02-19 10:21:00,
2013-02-19 02:31:00,40.0,37.0,29.68,North,0,0.0,0.0,88,0.00,,,0.01,,2013-02-19 10:31:00,
2013-02-19 02:41:00,40.0,37.0,29.68,North,0,0.0,0.0,88,0.00,,,0.01,,2013-02-19 10:41:00,
2013-02-19 02:52:00,39.0,36.0,29.68,North,0,0.0,1.0,89,0.00,,,0.01,,2013-02-19 10:52:00,
2013-02-19 03:01:00,38.0,35.0,29.69,North,0,0.0,1.0,89,0.00,,,0.01,,2013-02-19 11:01:00,
2013-02-19 03:11:00,38.0,35.0,29.68,North,0,0.0,0.0,90,0.00,,,0.01,,2013-02-19 11:11:00,
2013-02-19 03:21:00,38.0,35.0,29.68,North,0,0.0,0.0,90,0.00,,,0.01,,2013-02-19 11:21:00,
2013-02-19 03:31:00,38.0,35.0,29.68,North,0,0.0,2.0,90,0.00,,,0.01,,2013-02-19 11:31:00,
2013-02-19 03:41:00,38.0,35.0,29.68,North,0,0.0,2.0,90,0.00,,,0.01,,2013-02-19 11:41:00,
2013-02-19 03:52:00,38.0,35.0,29.68,WSW,256,2.0,4.0,90,0.00,,,0.01,,2013-02-19 11:52:00,
2013-02-19 04:01:00,38.0,36.0,29.68,NNW,343,2.0,5.0,92,0.00,,,0.01,,2013-02-19 12:01:00,
2013-02-19 04:12:00,38.0,36.0,29.68,NNW,343,2.0,5.0,92,0.00,,,0.01,,2013-02-19 12:12:00,
2013-02-19 04:21:00,39.0,37.0,29.69,NW,304,2.0,6.0,91,0.00,,,0.01,,2013-02-19 12:21:00,
2013-02-19 04:32:00,39.0,37.0,29.69,NW,304,2.0,6.0,91,0.00,,,0.01,,2013-02-19 12:32:00,
2013-02-19 04:41:00,39.0,37.0,29.69,NW,304,2.0,6.0,91,0.00,,,0.01,,2013-02-19 12:41:00,
2013-02-19 04:52:00,39.0,37.0,29.69,West,279,3.0,5.0,91,0.00,,,0.01,,2013-02-19 12:52:00,
2013-02-19 05:01:00,39.0,37.0,29.69,North,4,2.0,4.0,91,0.00,,,0.01,,2013-02-19 13:01:00,
2013-02-19 05:11:00,39.0,37.0,29.69,North,4,2.0,4.0,91,0.00,,,0.01,,2013-02-19 13:11:00,
2013-02-19 05:22:00,39.0,37.0,29.69,WNW,282,4.0,6.0,91,0.00,,,0.01,,2013-02-19 13:22:00,
2013-02-19 05:31:00,39.0,36.0,29.69,West,280,3.0,6.0,90,0.00,,,0.01,,2013-02-19 13:31:00,
2013-02-19 05:41:00,39.0,36.0,29.69,West,280,3.0,6.0,90,0.00,,,0.01,,2013-02-19 13:41:00,
2013-02-19 05:52:00,39.0,36.0,29.69,NW,304,3.0,7.0,89,0.00,,,0.01,,2013-02-19 13:52:00,
2013-02-19 06:01:00,39.0,36.0,29.70,NW,319,4.0,9.0,89,0.00,,,0.01,,2013-02-19 14:01:00,
2013-02-19 06:11:00,39.0,36.0,29.70,NW,319,4.0,9.0,89,0.00,,,0.01,,2013-02-19 14:11:00,
2013-02-19 06:21:00,40.0,37.0,29.70,NW,323,3.0,7.0,89,0.00,,,0.01,,2013-02-19 14:21:00,
2013-02-19 06:32:00,40.0,37.0,29.70,WNW,300,2.0,7.0,88,0.00,,,0.01,,2013-02-19 14:32:00,
2013-02-19 06:41:00,40.0,37.0,29.70,WNW,300,2.0,7.0,88,0.00,,,0.01,,2013-02-19 14:41:00,
2013-02-19 06:52:00,40.0,37.0,29.70,WNW,301,1.0,4.0,88,0.00,,,0.01,,2013-02-19 14:52:00,
2013-02-19 07:01:00,40.0,37.0,29.70,WNW,297,2.0,5.0,88,0.00,,,0.01,,2013-02-19 15:01:00,
2013-02-19 07:11:00,40.0,37.0,29.70,WNW,297,2.0,5.0,88,0.00,,,0.01,,2013-02-19 15:11:00,
2013-02-19 07:21:00,40.0,37.0,29.70,NNW,333,2.0,5.0,88,0.00,,,0.01,,2013-02-19 15:21:00,
2013-02-19 07:31:00,40.0,37.0,29.71,NNE,12,2.0,4.0,88,0.00,,,0.01,,2013-02-19 15:31:00,
2013-02-19 07:41:00,40.0,37.0,29.71,NNE,12,2.0,4.0,88,0.00,,,0.01,,2013-02-19 15:41:00,
2013-02-19 07:52:00,41.0,37.0,29.71,NNE,15,3.0,4.0,87,0.00,,,0.01,,2013-02-19 15:52:00,
2013-02-19 08:01:00,41.0,37.0,29.71,North,352,2.0,4.0,86,0.00,,,0.01,,2013-02-19 16:01:00,
2013-02-19 08:11:00,41.0,37.0,29.71,North,352,2.0,4.0,86,0.00,,,0.01,,2013-02-19 16:11:00,
2013-02-19 08:21:00,41.0,37.0,29.72,NNW,328,1.0,5.0,85,0.00,,,0.01,,2013-02-19 16:21:00,
2013-02-19 08:31:00,41.0,37.0,29.72,NNE,17,1.0,5.0,86,0.00,,,0.01,,2013-02-19 16:31:00,
2013-02-19 08:41:00,41.0,37.0,29.72,NNE,17,1.0,5.0,86,0.00,,,0.01,,2013-02-19 16:41:00,
2013-02-19 08:52:00,41.0,37.0,29.73,North,359,3.0,6.0,87,0.00,,,0.01,,2013-02-19 16:52:00,
2013-02-19 09:01:00,41.0,37.0,29.73,NNE,20,2.0,7.0,87,0.00,,,0.01,,2013-02-19 17:01:00,
2013-02-19 09:11:00,41.0,37.0,29.73,NNE,20,2.0,7.0,87,0.00,,,0.01,,2013-02-19 17:11:00,
2013-02-19 09:21:00,42.0,38.0,29.75,North,350,2.0,6.0,87,0.00,,,0.01,,2013-02-19 17:21:00,
2013-02-19 09:31:00,42.0,38.0,29.75,North,1,3.0,7.0,85,0.00,,,0.01,,2013-02-19 17:31:00,
2013-02-19 09:41:00,43.0,39.0,29.75,North,359,6.0,11.0,85,0.00,,,0.01,,2013-02-19 17:41:00,
2013-02-19 09:52:00,43.0,39.0,29.75,North,359,6.0,11.0,85,0.00,,,0.01,,2013-02-19 17:52:00,
2013-02-19 10:01:00,43.0,37.0,29.75,NNW,333,5.0,9.0,78,0.00,,,0.01,,2013-02-19 18:01:00,
2013-02-19 10:11:00,43.0,37.0,29.75,NNW,333,5.0,9.0,78,0.00,,,0.01,,2013-02-19 18:11:00,
2013-02-19 10:21:00,43.0,34.0,29.75,NNE,28,4.0,10.0,69,0.00,,,0.01,,2013-02-19 18:21:00,
2013-02-19 10:31:00,44.0,34.0,29.75,NW,325,3.0,6.0,67,0.00,,,0.01,,2013-02-19 18:31:00,
2013-02-19 10:41:00,44.0,35.0,29.75,NNE,26,3.0,11.0,71,0.00,,,0.01,,2013-02-19 18:41:00,
2013-02-19 10:52:00,44.0,35.0,29.75,NNE,26,3.0,11.0,71,0.00,,,0.01,,2013-02-19 18:52:00,
2013-02-19 11:01:00,44.0,36.0,29.76,NNE,16,2.0,6.0,73,0.00,,,0.01,,2013-02-19 19:01:00,
2013-02-19 11:11:00,44.0,36.0,29.76,NNE,16,2.0,6.0,73,0.00,,,0.01,,2013-02-19 19:11:00,
2013-02-19 11:21:00,44.0,36.0,29.76,North,0,0.0,9.0,74,0.00,,,0.01,,2013-02-19 19:21:00,
2013-02-19 11:31:00,45.0,37.0,29.76,NNW,337,4.0,10.0,74,0.00,,,0.01,,2013-02-19 19:31:00,
2013-02-19 11:41:00,45.0,37.0,29.76,NNW,337,4.0,10.0,74,0.00,,,0.01,,2013-02-19 19:41:00,
2013-02-19 11:51:00,46.0,37.0,29.76,North,353,5.0,10.0,71,0.00,,,0.01,,2013-02-19 19:51:00,
2013-02-19 12:01:00,46.0,37.0,29.77,North,352,3.0,7.0,71,0.00,,,0.01,,2013-02-19 20:01:00,
2013-02-19 12:11:00,46.0,37.0,29.77,North,352,3.0,7.0,71,0.00,,,0.01,,2013-02-19 20:11:00,
2013-02-19 12:21:00,46.0,37.0,29.76,NNW,338,4.0,11.0,70,0.00,,,0.01,,2013-02-19 20:21:00,
2013-02-19 12:31:00,46.0,36.0,29.77,North,4,3.0,12.0,69,0.00,,,0.01,,2013-02-19 20:31:00,
2013-02-19 12:41:00,46.0,36.0,29.77,North,4,3.0,12.0,69,0.00,,,0.01,,2013-02-19 20:41:00,
2013-02-19 12:52:00,46.0,37.0,29.77,NNE,19,6.0,10.0,70,0.00,,,0.01,,2013-02-19 20:52:00,
2013-02-19 13:01:00,46.0,37.0,29.78,NNE,25,7.0,13.0,70,0.00,,,0.01,,2013-02-19 21:01:00,
2013-02-19 13:11:00,46.0,37.0,29.78,NNE,25,7.0,13.0,70,0.00,,,0.01,,2013-02-19 21:11:00,
2013-02-19 13:21:00,47.0,37.0,29.78,North,11,6.0,14.0,67,0.00,,,0.01,,2013-02-19 21:21:00,
2013-02-19 13:31:00,47.0,34.0,29.78,NNW,347,4.0,10.0,61,0.00,,,0.01,,2013-02-19 21:31:00,
2013-02-19 13:42:00,47.0,34.0,29.78,NNW,347,4.0,10.0,61,0.00,,,0.01,,2013-02-19 21:42:00,
2013-02-19 13:51:00,48.0,35.0,29.78,North,6,5.0,11.0,60,0.00,,,0.01,,2013-02-19 21:51:00,
2013-02-19 14:01:00,47.0,35.0,29.78,NNE,15,7.0,12.0,64,0.00,,,0.01,,2013-02-19 22:01:00,
2013-02-19 14:11:00,47.0,35.0,29.78,NNE,15,7.0,12.0,64,0.00,,,0.01,,2013-02-19 22:11:00,
2013-02-19 14:21:00,47.0,37.0,29.78,NNW,333,5.0,12.0,68,0.00,,,0.01,,2013-02-19 22:21:00,
2013-02-19 14:31:00,47.0,35.0,29.80,North,7,6.0,12.0,63,0.00,,,0.01,,2013-02-19 22:31:00,
2013-02-19 14:41:00,47.0,35.0,29.80,North,7,6.0,12.0,63,0.00,,,0.01,,2013-02-19 22:41:00,
2013-02-19 14:51:00,47.0,35.0,29.80,NNW,342,5.0,11.0,64,0.00,,,0.01,,2013-02-19 22:51:00,
2013-02-19 15:01:00,47.0,35.0,29.80,NNW,328,6.0,12.0,63,0.00,,,0.01,,2013-02-19 23:01:00,
2013-02-19 15:11:00,47.0,35.0,29.80,NNW,328,6.0,12.0,63,0.00,,,0.01,,2013-02-19 23:11:00,
2013-02-19 15:21:00,47.0,35.0,29.80,NNW,329,5.0,10.0,62,0.00,,,0.01,,2013-02-19 23:21:00,
2013-02-19 15:31:00,47.0,34.0,29.81,North,352,5.0,11.0,61,0.00,,,0.01,,2013-02-19 23:31:00,
2013-02-19 15:41:00,47.0,34.0,29.81,North,352,5.0,11.0,61,0.00,,,0.01,,2013-02-19 23:41:00,
2013-02-19 15:52:00,47.0,35.0,29.81,NW,324,4.0,15.0,63,0.00,,,0.01,,2013-02-19 23:52:00,
2013-02-19 16:01:00,47.0,34.0,29.81,NNW,346,5.0,11.0,61,0.00,,,0.01,,2013-02-20 00:01:00,
2013-02-19 16:11:00,47.0,34.0,29.81,NNW,346,5.0,11.0,61,0.00,,,0.01,,2013-02-20 00:11:00,
2013-02-19 16:21:00,47.0,35.0,29.81,North,1,5.0,11.0,62,0.00,,,0.01,,2013-02-20 00:21:00,
2013-02-19 16:31:00,46.0,35.0,29.81,NNW,329,3.0,9.0,64,0.00,,,0.01,,2013-02-20 00:31:00,
2013-02-19 16:41:00,46.0,35.0,29.81,NNW,329,3.0,9.0,64,0.00,,,0.01,,2013-02-20 00:41:00,
2013-02-19 16:52:00,46.0,35.0,29.81,NW,323,4.0,11.0,64,0.00,,,0.01,,2013-02-20 00:52:00,
2013-02-19 17:02:00,46.0,35.0,29.82,NNW,344,3.0,9.0,64,0.00,,,0.01,,2013-02-20 01:02:00,
2013-02-19 17:11:00,46.0,35.0,29.82,NNW,344,3.0,9.0,64,0.00,,,0.01,,2013-02-20 01:11:00,
2013-02-19 17:21:00,46.0,36.0,29.82,NW,318,4.0,9.0,67,0.00,,,0.01,,2013-02-20 01:21:00,
2013-02-19 17:31:00,45.0,37.0,29.82,NNW,336,3.0,7.0,72,0.00,,,0.01,,2013-02-20 01:31:00,
2013-02-19 17:41:00,45.0,37.0,29.82,NNW,336,3.0,7.0,72,0.00,,,0.01,,2013-02-20 01:41:00,
2013-02-19 17:51:00,44.0,37.0,29.82,NW,319,4.0,9.0,75,0.00,,,0.01,,2013-02-20 01:51:00,
2013-02-19 18:01:00,43.0,35.0,29.83,NW,324,3.0,10.0,72,0.00,,,0.01,,2013-02-20 02:01:00,
2013-02-19 18:11:00,43.0,35.0,29.83,NW,324,3.0,10.0,72,0.00,,,0.01,,2013-02-20 02:11:00,
2013-02-19 18:21:00,43.0,36.0,29.83,NNW,338,3.0,10.0,75,0.00,,,0.01,,2013-02-20 02:21:00,
2013-02-19 18:31:00,43.0,36.0,29.84,North,353,4.0,10.0,76,0.00,,,0.00,,2013-02-20 02:31:00,
2013-02-19 18:41:00,43.0,36.0,29.84,North,353,4.0,10.0,76,0.00,,,0.00,,2013-02-20 02:41:00,
2013-02-19 18:52:00,43.0,37.0,29.85,NW,307,3.0,6.0,78,0.00,,,0.00,,2013-02-20 02:52:00,
2013-02-19 19:01:00,42.0,36.0,29.85,NW,305,2.0,5.0,78,0.00,,,0.00,,2013-02-20 03:01:00,
2013-02-19 19:11:00,42.0,36.0,29.85,NW,305,2.0,5.0,78,0.00,,,0.00,,2013-02-20 03:11:00,
2013-02-19 19:21:00,42.0,36.0,29.86,NW,317,2.0,5.0,78,0.00,,,0.00,,2013-02-20 03:21:00,
2013-02-19 19:31:00,42.0,36.0,29.86,NW,325,1.0,5.0,78,0.00,,,0.00,,2013-02-20 03:31:00,
2013-02-19 19:41:00,42.0,36.0,29.86,NW,325,1.0,5.0,78,0.00,,,0.00,,2013-02-20 03:41:00,
2013-02-19 19:52:00,42.0,36.0,29.87,NW,312,2.0,4.0,79,0.00,,,0.00,,2013-02-20 03:52:00,
2013-02-19 20:01:00,42.0,36.0,29.88,North,0,0.0,2.0,80,0.00,,,0.00,,2013-02-20 04:01:00,
2013-02-19 20:11:00,42.0,36.0,29.88,North,0,0.0,2.0,80,0.00,,,0.00,,2013-02-20 04:11:00,
2013-02-19 20:21:00,41.0,36.0,29.88,North,0,0.0,3.0,82,0.00,,,0.00,,2013-02-20 04:21:00,
2013-02-19 20:31:00,41.0,36.0,29.88,North,4,1.0,2.0,83,0.00,,,0.00,,2013-02-20 04:31:00,
2013-02-19 20:41:00,41.0,36.0,29.88,North,4,1.0,2.0,83,0.00,,,0.00,,2013-02-20 04:41:00,
2013-02-19 20:52:00,41.0,37.0,29.89,North,0,0.0,3.0,84,0.00,,,0.00,,2013-02-20 04:52:00,
2013-02-19 21:01:00,41.0,36.0,29.89,North,4,1.0,3.0,83,0.00,,,0.00,,2013-02-20 05:01:00,
2013-02-19 21:12:00,41.0,36.0,29.89,North,4,1.0,3.0,83,0.00,,,0.00,,2013-02-20 05:12:00,
2013-02-19 21:22:00,41.0,36.0,29.89,North,4,1.0,3.0,83,0.00,,,0.00,,2013-02-20 05:22:00,
2013-02-19 21:31:00,41.0,36.0,29.90,North,0,0.0,3.0,83,0.00,,,0.00,,2013-02-20 05:31:00,
2013-02-19 21:42:00,41.0,36.0,29.90,North,0,0.0,3.0,83,0.00,,,0.00,,2013-02-20 05:42:00,
2013-02-19 21:52:00,41.0,37.0,29.91,North,0,0.0,3.0,84,0.00,,,0.00,,2013-02-20 05:52:00,
2013-02-19 22:01:00,41.0,37.0,29.91,North,0,0.0,3.0,84,0.00,,,0.00,,2013-02-20 06:01:00,
2013-02-19 22:11:00,40.0,36.0,29.92,North,0,0.0,2.0,85,0.00,,,0.00,,2013-02-20 06:11:00,
2013-02-19 22:21:00,40.0,36.0,29.92,North,0,0.0,2.0,85,0.00,,,0.00,,2013-02-20 06:21:00,
2013-02-19 22:31:00,40.0,36.0,29.92,North,0,0.0,1.0,87,0.00,,,0.00,,2013-02-20 06:31:00,
2013-02-19 22:41:00,40.0,36.0,29.92,North,0,0.0,1.0,87,0.00,,,0.00,,2013-02-20 06:41:00,
2013-02-19 22:52:00,40.0,37.0,29.93,North,0,0.0,0.0,88,0.00,,,0.00,,2013-02-20 06:52:00,
2013-02-19 23:01:00,39.0,36.0,29.94,North,0,0.0,0.0,89,0.00,,,0.00,,2013-02-20 07:01:00,
2013-02-19 23:11:00,39.0,36.0,29.94,North,0,0.0,0.0,89,0.00,,,0.00,,2013-02-20 07:11:00,
2013-02-19 23:21:00,39.0,36.0,29.94,North,0,0.0,0.0,90,0.00,,,0.00,,2013-02-20 07:21:00,
2013-02-19 23:31:00,40.0,38.0,29.94,North,0,0.0,0.0,91,0.00,,,0.00,,2013-02-20 07:31:00,
2013-02-19 23:41:00,40.0,38.0,29.94,North,0,0.0,0.0,91,0.00,,,0.00,,2013-02-20 07:41:00,
2013-02-19 23:52:00,39.0,36.0,29.94,North,0,0.0,1.0,90,0.00,,,0.00,,2013-02-20 07:52:00,